Find Starlink 5671

NORAD ID: 55339 Int'l Des: 2023-013 Owner: SPXS Country: US Constellation: starlink operational
LEOCIRCULAR

Live Position

Loading 3D Globe...

About Starlink 5671

Description loading...

Upcoming Passes

Passes for default location (London). Set your location on the main map for personalized predictions.

Altitude History

Loading altitude history...

Two-Line Element Set

1 55339U 23013J 26124.35106983 .00000883 00000-0 41621-4 0 9991
2 55339 43.0026 352.6841 0001311 264.2165 95.8537 15.27577150180144
Epoch: May 4, 2026 • Age: 17 hours

Current Status

Altitude 490.5 km
Velocity 7.62 km/s
Sub-Earth Point -30.08°S, 65.34°E
Launch Date Jan 26, 2023
Age 3.2 years
Type internet

Technical Details

Classification Payload
Mass 305.00 kg
Dry Mass 290.00 kg
Total Mass 305.00 kg
Length 0.20 m
Diameter 2.80 m
Span 9.00 m
Shape Box + pan
Manufacturer SPXS
Bus Type Starlink
Phase Status In Orbit
Owner/State SPXS/US

Most Searched